GEFSGL_prec_meanprecacc_156.txt.gz
Total_Precipitation_Accumulation
0.99 1.00 1.01 1.00 1.02 0.97 0.87 0.74 0.68 0.67 0.66 0.69 0.72 0.74 0.72 0.71 0.73 0.81 0.92 1.11 1.23 1.25 1.25 1.30 1.31 1.30 1.28 1.26 1.33 1.44 1.57 1.56 1.34 1.14 1.16 1.18 1.14 1.03 0.96 0.88 0.75 0.67 0.55
1.02 1.16 1.19 1.11 1.04 0.94 0.82 0.72 0.68 0.65 0.63 0.63 0.64 0.62 0.60 0.61 0.67 0.75 0.85 0.96 1.04 1.06 1.05 1.06 1.01 1.00 1.03 1.02 1.09 1.17 1.26 1.44 1.42 1.29 1.35 1.39 1.37 1.27 1.21 1.13 0.94 0.73 0.61
0.99 1.29 1.40 1.30 1.16 0.99 0.80 0.65 0.59 0.59 0.60 0.59 0.58 0.57 0.61 0.70 0.78 0.83 0.85 0.86 0.87 0.90 0.98 1.04 0.95 0.90 0.90 0.92 0.96 0.94 0.99 1.16 1.28 1.31 1.36 1.45 1.46 1.45 1.32 1.17 1.10 0.97 0.75
0.87 1.07 1.16 1.06 0.95 0.85 0.70 0.54 0.48 0.49 0.54 0.57 0.61 0.64 0.70 0.75 0.81 0.85 0.86 0.83 0.76 0.71 0.76 0.82 0.83 0.80 0.78 0.84 0.87 0.89 0.92 1.05 1.18 1.26 1.34 1.50 1.52 1.46 1.41 1.26 1.23 1.13 1.01
0.64 0.71 0.79 0.75 0.66 0.62 0.59 0.53 0.50 0.53 0.53 0.59 0.65 0.69 0.70 0.68 0.65 0.62 0.63 0.64 0.62 0.58 0.54 0.55 0.60 0.65 0.67 0.69 0.71 0.83 0.91 0.96 1.01 1.06 1.13 1.32 1.55 1.60 1.41 1.31 1.36 1.35 1.22
0.48 0.54 0.64 0.72 0.67 0.59 0.56 0.54 0.51 0.54 0.57 0.61 0.64 0.69 0.70 0.57 0.60 0.52 0.45 0.46 0.50 0.51 0.54 0.54 0.52 0.51 0.52 0.52 0.53 0.60 0.73 0.82 0.86 0.93 1.00 1.16 1.38 1.56 1.61 1.56 1.48 1.40 1.36
0.53 0.61 0.69 0.76 0.74 0.70 0.63 0.64 0.61 0.63 0.65 0.65 0.64 0.64 0.64 0.65 0.65 0.55 0.41 0.37 0.40 0.44 0.48 0.51 0.45 0.42 0.47 0.48 0.50 0.49 0.50 0.58 0.69 0.82 0.89 0.94 1.10 1.32 1.53 1.51 1.57 1.59 1.58
0.61 0.70 0.80 0.85 0.82 0.81 0.83 0.86 0.86 0.85 0.82 0.79 0.74 0.70 0.74 0.71 0.65 0.52 0.43 0.37 0.38 0.41 0.45 0.49 0.48 0.42 0.41 0.48 0.53 0.51 0.46 0.46 0.50 0.58 0.68 0.84 1.04 1.27 1.54 1.54 1.53 1.61 1.67
0.76 0.83 0.91 0.99 1.01 1.01 1.04 1.04 1.07 1.08 0.97 0.88 0.82 0.81 0.79 0.80 0.75 0.59 0.52 0.47 0.48 0.48 0.50 0.50 0.49 0.46 0.46 0.44 0.49 0.53 0.54 0.52 0.50 0.52 0.57 0.75 0.98 1.10 1.32 1.45 1.42 1.43 1.35
0.91 1.05 1.20 1.31 1.33 1.31 1.36 1.34 1.28 1.22 1.12 1.10 1.05 1.03 1.02 1.07 1.11 0.90 0.78 0.70 0.69 0.68 0.72 0.68 0.58 0.51 0.51 0.49 0.50 0.56 0.56 0.56 0.62 0.60 0.57 0.61 0.73 0.91 1.06 1.19 1.29 1.32 1.20
1.04 1.19 1.39 1.52 1.59 1.63 1.71 1.68 1.61 1.56 1.53 1.48 1.36 1.32 1.34 1.35 1.38 1.15 1.00 0.91 0.92 0.98 0.97 0.89 0.83 0.72 0.62 0.61 0.58 0.59 0.55 0.56 0.65 0.68 0.68 0.70 0.75 0.85 0.94 1.02 1.18 1.30 1.26
1.08 1.21 1.36 1.50 1.54 1.63 1.81 1.85 1.84 1.82 1.75 1.70 1.64 1.49 1.46 1.44 1.34 1.18 0.99 0.88 0.96 1.10 1.16 1.09 1.01 0.86 0.68 0.61 0.54 0.51 0.48 0.46 0.52 0.62 0.66 0.68 0.70 0.73 0.81 0.96 1.12 1.19 1.24
1.13 1.27 1.42 1.51 1.57 1.67 1.71 1.71 1.72 1.76 1.74 1.66 1.64 1.55 1.50 1.51 1.44 1.16 0.97 0.88 0.88 1.00 1.14 1.15 1.01 0.86 0.73 0.62 0.55 0.52 0.48 0.45 0.51 0.57 0.59 0.61 0.64 0.70 0.84 1.01 1.20 1.28 1.25
1.26 1.32 1.41 1.52 1.55 1.57 1.68 1.76 1.82 1.90 1.95 1.85 1.74 1.65 1.59 1.54 1.45 1.29 1.12 1.01 1.02 1.08 1.17 1.21 1.09 0.98 0.86 0.79 0.70 0.61 0.57 0.60 0.62 0.64 0.65 0.70 0.77 0.85 0.92 0.99 1.10 1.21 1.25
1.20 1.26 1.31 1.37 1.45 1.54 1.61 1.67 1.66 1.71 1.69 1.64 1.57 1.56 1.56 1.53 1.38 1.29 1.19 1.07 1.12 1.20 1.24 1.32 1.23 1.18 1.09 1.01 0.93 0.88 0.86 0.85 0.79 0.77 0.83 0.86 0.89 0.96 0.98 1.00 1.12 1.14 1.09
1.25 1.28 1.24 1.23 1.30 1.36 1.43 1.43 1.37 1.28 1.25 1.19 1.18 1.19 1.18 1.13 1.05 0.95 0.92 0.92 0.96 1.08 1.15 1.31 1.37 1.35 1.31 1.24 1.13 1.04 0.99 0.94 0.88 0.90 0.94 0.96 0.96 0.98 1.04 1.04 1.09 1.12 1.04
1.16 1.17 1.16 1.15 1.23 1.27 1.30 1.34 1.37 1.28 1.15 1.06 1.02 0.99 1.00 0.97 0.93 0.89 0.89 0.93 0.94 1.00 1.08 1.25 1.32 1.28 1.26 1.20 1.08 0.96 0.91 0.91 0.98 1.00 1.02 1.02 1.06 1.09 1.14 1.12 1.09 1.13 1.09
1.01 1.04 1.07 1.10 1.16 1.24 1.29 1.37 1.47 1.55 1.48 1.30 1.11 1.00 0.92 0.86 0.79 0.78 0.79 0.80 0.80 0.85 0.98 1.12 1.17 1.11 1.08 1.04 1.00 0.95 0.93 0.98 1.07 1.06 1.06 1.07 1.09 1.10 1.13 1.14 1.10 1.08 1.07
0.92 0.93 0.93 0.96 1.00 1.06 1.09 1.17 1.27 1.37 1.41 1.32 1.17 1.04 0.91 0.83 0.74 0.69 0.68 0.67 0.74 0.85 1.00 1.05 1.07 1.07 1.00 0.97 0.97 0.93 0.91 0.93 1.03 1.09 1.07 1.08 1.09 1.11 1.10 1.07 1.10 1.09 1.00
0.85 0.83 0.83 0.85 0.85 0.85 0.87 0.95 1.04 1.15 1.20 1.15 1.06 0.96 0.84 0.80 0.71 0.66 0.61 0.60 0.68 0.77 0.86 0.93 0.97 0.95 0.89 0.90 0.92 0.90 0.88 0.94 1.05 1.08 1.06 1.08 1.12 1.11 1.03 1.01 1.03 1.06 0.99
0.85 0.77 0.72 0.73 0.73 0.75 0.80 0.85 0.89 0.93 0.99 0.95 0.88 0.76 0.69 0.65 0.59 0.55 0.56 0.59 0.68 0.77 0.84 0.88 0.88 0.85 0.83 0.86 0.91 0.93 0.91 0.97 1.04 1.06 1.06 1.10 1.14 1.13 1.06 1.03 1.01 1.02 1.02
0.83 0.74 0.66 0.63 0.66 0.68 0.69 0.76 0.82 0.83 0.80 0.77 0.72 0.59 0.56 0.54 0.49 0.46 0.49 0.55 0.62 0.73 0.75 0.74 0.77 0.78 0.76 0.77 0.83 0.90 0.94 0.99 1.07 1.08 1.06 1.08 1.11 1.11 1.13 1.10 1.09 1.05 1.06
0.85 0.72 0.62 0.57 0.59 0.60 0.63 0.72 0.79 0.77 0.69 0.64 0.60 0.56 0.55 0.57 0.49 0.46 0.51 0.59 0.66 0.68 0.65 0.65 0.70 0.73 0.73 0.74 0.74 0.82 0.89 0.95 1.00 1.01 1.07 1.10 1.08 1.06 1.07 1.02 1.01 1.03 1.02
0.81 0.72 0.63 0.54 0.55 0.60 0.63 0.69 0.73 0.72 0.66 0.61 0.57 0.55 0.56 0.59 0.55 0.54 0.59 0.70 0.69 0.62 0.61 0.64 0.67 0.69 0.71 0.76 0.75 0.75 0.79 0.84 0.84 0.85 0.87 0.92 0.95 0.96 0.98 0.97 0.96 0.95 0.98
0.80 0.72 0.62 0.52 0.51 0.55 0.58 0.63 0.67 0.68 0.65 0.59 0.58 0.59 0.61 0.64 0.62 0.61 0.64 0.65 0.62 0.58 0.54 0.58 0.64 0.65 0.68 0.70 0.71 0.72 0.71 0.68 0.68 0.71 0.74 0.78 0.83 0.91 0.97 0.97 0.97 0.96 0.96
0.73 0.66 0.60 0.53 0.46 0.47 0.54 0.61 0.63 0.62 0.60 0.57 0.56 0.58 0.58 0.57 0.55 0.51 0.49 0.49 0.49 0.49 0.49 0.54 0.60 0.62 0.66 0.67 0.60 0.57 0.54 0.49 0.52 0.60 0.63 0.71 0.82 0.89 0.93 0.98 0.97 0.98 0.96

GEFSGL_prec_meanprecacc_162.txt.gz
Total_Precipitation_Accumulation
1.06 1.10 1.10 1.10 1.14 1.10 1.00 0.88 0.82 0.79 0.77 0.78 0.83 0.86 0.83 0.79 0.81 0.87 0.97 1.16 1.28 1.29 1.30 1.35 1.35 1.34 1.32 1.28 1.34 1.46 1.59 1.59 1.37 1.16 1.18 1.20 1.15 1.03 0.97 0.89 0.76 0.68 0.55
1.07 1.23 1.28 1.20 1.15 1.06 0.92 0.83 0.79 0.77 0.76 0.76 0.77 0.75 0.70 0.70 0.76 0.81 0.92 1.02 1.10 1.12 1.11 1.11 1.05 1.03 1.06 1.04 1.11 1.18 1.28 1.46 1.45 1.32 1.38 1.41 1.39 1.28 1.22 1.14 0.94 0.74 0.62
1.04 1.36 1.49 1.42 1.27 1.09 0.90 0.76 0.72 0.71 0.73 0.72 0.71 0.72 0.74 0.81 0.88 0.91 0.93 0.92 0.92 0.95 1.03 1.10 1.00 0.94 0.93 0.96 0.98 0.96 1.01 1.18 1.30 1.34 1.39 1.48 1.48 1.46 1.33 1.19 1.11 0.99 0.76
0.93 1.14 1.24 1.16 1.05 0.94 0.78 0.64 0.60 0.62 0.67 0.69 0.73 0.76 0.81 0.86 0.91 0.94 0.95 0.90 0.82 0.75 0.80 0.86 0.87 0.85 0.84 0.91 0.93 0.93 0.95 1.08 1.21 1.29 1.37 1.53 1.55 1.48 1.43 1.27 1.25 1.15 1.03
0.70 0.78 0.87 0.84 0.75 0.70 0.68 0.64 0.61 0.66 0.68 0.73 0.78 0.82 0.82 0.80 0.74 0.72 0.73 0.73 0.70 0.64 0.59 0.60 0.65 0.71 0.74 0.77 0.77 0.89 0.97 1.01 1.05 1.11 1.18 1.37 1.58 1.62 1.43 1.33 1.39 1.37 1.24
0.54 0.61 0.73 0.82 0.77 0.68 0.66 0.67 0.65 0.70 0.74 0.77 0.79 0.83 0.84 0.71 0.72 0.63 0.57 0.59 0.63 0.63 0.64 0.63 0.59 0.58 0.58 0.58 0.58 0.64 0.78 0.88 0.94 1.00 1.05 1.21 1.43 1.60 1.65 1.60 1.52 1.43 1.39
0.56 0.65 0.75 0.83 0.83 0.78 0.72 0.75 0.75 0.82 0.87 0.85 0.82 0.80 0.81 0.83 0.81 0.68 0.54 0.50 0.54 0.59 0.64 0.65 0.55 0.50 0.56 0.55 0.56 0.54 0.53 0.62 0.74 0.88 0.95 1.00 1.16 1.39 1.60 1.56 1.62 1.63 1.61
0.64 0.74 0.84 0.90 0.89 0.88 0.90 0.95 1.00 1.03 1.03 1.00 0.94 0.87 0.89 0.87 0.79 0.63 0.55 0.48 0.50 0.53 0.58 0.62 0.61 0.54 0.52 0.59 0.64 0.59 0.54 0.52 0.56 0.63 0.72 0.88 1.09 1.33 1.60 1.59 1.58 1.65 1.70
0.79 0.86 0.94 1.03 1.07 1.09 1.12 1.13 1.17 1.21 1.15 1.07 1.00 0.99 0.95 0.95 0.90 0.72 0.64 0.60 0.65 0.67 0.69 0.66 0.65 0.60 0.60 0.57 0.59 0.61 0.61 0.60 0.57 0.60 0.63 0.80 1.02 1.15 1.36 1.49 1.46 1.47 1.39
0.93 1.07 1.23 1.36 1.38 1.36 1.43 1.42 1.36 1.30 1.23 1.24 1.20 1.17 1.16 1.22 1.27 1.06 0.93 0.83 0.84 0.83 0.89 0.83 0.74 0.66 0.64 0.60 0.58 0.63 0.63 0.63 0.70 0.68 0.64 0.67 0.78 0.96 1.11 1.24 1.35 1.40 1.28
1.07 1.22 1.44 1.59 1.66 1.70 1.77 1.75 1.68 1.63 1.61 1.57 1.48 1.45 1.46 1.47 1.51 1.30 1.15 1.05 1.08 1.13 1.11 1.02 0.97 0.88 0.74 0.70 0.66 0.67 0.66 0.67 0.75 0.78 0.79 0.81 0.86 0.95 1.02 1.10 1.26 1.38 1.35
1.12 1.26 1.40 1.55 1.60 1.68 1.86 1.91 1.90 1.88 1.82 1.78 1.74 1.62 1.59 1.57 1.47 1.31 1.13 1.03 1.10 1.22 1.27 1.19 1.11 0.97 0.78 0.71 0.65 0.63 0.61 0.57 0.61 0.72 0.77 0.80 0.82 0.85 0.92 1.06 1.20 1.27 1.32
1.20 1.33 1.47 1.55 1.62 1.70 1.75 1.75 1.77 1.83 1.82 1.75 1.74 1.67 1.63 1.63 1.55 1.27 1.07 0.97 0.99 1.10 1.25 1.28 1.13 0.97 0.82 0.70 0.65 0.62 0.57 0.53 0.59 0.67 0.69 0.71 0.72 0.78 0.92 1.09 1.26 1.33 1.30
1.30 1.36 1.45 1.57 1.59 1.62 1.74 1.83 1.89 1.97 2.04 1.94 1.83 1.74 1.68 1.63 1.54 1.37 1.19 1.09 1.11 1.18 1.27 1.32 1.18 1.05 0.91 0.84 0.76 0.67 0.63 0.68 0.72 0.74 0.76 0.80 0.86 0.92 0.97 1.04 1.14 1.24 1.27
1.23 1.29 1.34 1.41 1.50 1.58 1.65 1.72 1.72 1.78 1.77 1.73 1.66 1.63 1.62 1.59 1.44 1.35 1.25 1.14 1.18 1.26 1.30 1.37 1.28 1.22 1.14 1.05 0.97 0.92 0.91 0.91 0.86 0.84 0.89 0.91 0.92 0.98 1.00 1.02 1.13 1.15 1.10
1.29 1.32 1.28 1.28 1.34 1.41 1.46 1.45 1.40 1.33 1.30 1.25 1.24 1.24 1.23 1.18 1.10 0.99 0.95 0.95 1.00 1.12 1.19 1.36 1.43 1.39 1.34 1.27 1.16 1.06 1.02 0.98 0.92 0.94 0.97 0.98 0.98 1.00 1.05 1.05 1.10 1.13 1.05
1.18 1.20 1.18 1.19 1.26 1.30 1.33 1.36 1.39 1.32 1.19 1.11 1.07 1.03 1.04 1.02 0.98 0.94 0.93 0.97 0.97 1.03 1.10 1.26 1.33 1.30 1.27 1.22 1.10 0.99 0.94 0.95 1.01 1.03 1.05 1.04 1.09 1.11 1.15 1.13 1.10 1.14 1.10
1.02 1.05 1.08 1.12 1.18 1.26 1.32 1.39 1.50 1.58 1.52 1.34 1.14 1.03 0.95 0.89 0.83 0.81 0.83 0.84 0.84 0.88 1.01 1.15 1.19 1.13 1.10 1.07 1.05 0.99 0.98 1.03 1.12 1.10 1.10 1.11 1.12 1.12 1.15 1.15 1.12 1.09 1.09
0.93 0.93 0.94 0.98 1.03 1.09 1.12 1.20 1.29 1.39 1.42 1.33 1.18 1.05 0.93 0.84 0.75 0.71 0.70 0.70 0.77 0.89 1.04 1.09 1.11 1.11 1.05 1.02 1.01 0.97 0.96 0.99 1.08 1.13 1.11 1.12 1.11 1.13 1.12 1.08 1.11 1.10 1.01
0.86 0.84 0.85 0.86 0.86 0.86 0.88 0.96 1.05 1.16 1.21 1.15 1.07 0.96 0.85 0.80 0.72 0.66 0.61 0.61 0.69 0.78 0.88 0.95 0.99 0.96 0.90 0.92 0.94 0.93 0.91 0.97 1.08 1.10 1.07 1.09 1.14 1.13 1.05 1.02 1.04 1.07 0.99
0.85 0.77 0.73 0.73 0.73 0.75 0.80 0.86 0.90 0.93 0.99 0.95 0.88 0.76 0.69 0.65 0.59 0.55 0.56 0.59 0.68 0.78 0.84 0.89 0.89 0.85 0.84 0.88 0.92 0.95 0.92 0.98 1.06 1.07 1.07 1.11 1.15 1.14 1.07 1.04 1.01 1.03 1.03
0.84 0.74 0.67 0.64 0.67 0.69 0.71 0.78 0.83 0.84 0.81 0.78 0.73 0.59 0.56 0.54 0.49 0.46 0.49 0.55 0.62 0.73 0.75 0.74 0.77 0.78 0.76 0.78 0.84 0.90 0.95 1.00 1.08 1.10 1.07 1.09 1.13 1.13 1.14 1.11 1.10 1.06 1.06
0.86 0.73 0.63 0.59 0.60 0.61 0.64 0.74 0.80 0.78 0.70 0.65 0.60 0.56 0.55 0.58 0.49 0.46 0.51 0.59 0.66 0.68 0.65 0.66 0.70 0.74 0.75 0.76 0.76 0.84 0.91 0.97 1.02 1.03 1.09 1.12 1.10 1.08 1.08 1.03 1.03 1.04 1.04
0.82 0.73 0.64 0.55 0.55 0.60 0.63 0.69 0.73 0.72 0.66 0.61 0.57 0.56 0.56 0.59 0.56 0.54 0.59 0.70 0.69 0.63 0.61 0.64 0.67 0.70 0.73 0.78 0.78 0.78 0.82 0.87 0.87 0.87 0.90 0.95 0.97 0.98 1.01 0.99 0.99 0.97 1.00
0.80 0.72 0.62 0.53 0.51 0.55 0.58 0.64 0.67 0.68 0.65 0.59 0.58 0.59 0.61 0.65 0.62 0.61 0.64 0.66 0.62 0.58 0.54 0.58 0.64 0.66 0.69 0.71 0.73 0.73 0.73 0.70 0.70 0.73 0.76 0.80 0.85 0.93 0.99 0.99 0.99 0.98 0.97
0.73 0.66 0.60 0.53 0.47 0.47 0.54 0.61 0.63 0.63 0.60 0.57 0.56 0.58 0.58 0.58 0.55 0.51 0.49 0.49 0.49 0.49 0.49 0.54 0.60 0.62 0.66 0.67 0.60 0.58 0.55 0.50 0.52 0.61 0.64 0.72 0.83 0.90 0.94 0.99 0.98 0.99 0.97

GEFSGL_prec_meanprecacc_168.txt.gz
Total_Precipitation_Accumulation
1.14 1.18 1.20 1.19 1.23 1.21 1.11 0.99 0.94 0.92 0.89 0.89 0.94 0.99 0.97 0.93 0.95 1.03 1.08 1.28 1.38 1.39 1.38 1.42 1.40 1.39 1.38 1.33 1.39 1.50 1.63 1.64 1.43 1.20 1.23 1.25 1.22 1.09 1.02 0.94 0.84 0.72 0.57
1.13 1.29 1.36 1.30 1.24 1.16 1.02 0.94 0.94 0.93 0.90 0.89 0.89 0.88 0.83 0.82 0.89 0.95 1.04 1.15 1.22 1.23 1.22 1.21 1.12 1.10 1.15 1.11 1.18 1.24 1.34 1.54 1.52 1.40 1.45 1.48 1.45 1.34 1.27 1.20 1.01 0.78 0.64
1.11 1.43 1.58 1.52 1.38 1.20 1.02 0.90 0.86 0.86 0.87 0.86 0.84 0.84 0.85 0.94 1.03 1.06 1.07 1.06 1.05 1.07 1.16 1.22 1.09 1.03 1.03 1.05 1.06 1.03 1.08 1.25 1.39 1.42 1.46 1.55 1.55 1.53 1.40 1.23 1.13 1.00 0.77
1.01 1.24 1.34 1.25 1.16 1.05 0.90 0.78 0.74 0.75 0.81 0.83 0.86 0.88 0.92 0.99 1.06 1.11 1.12 1.06 0.98 0.91 0.95 0.99 0.99 0.98 0.99 1.05 1.03 1.03 1.05 1.18 1.31 1.38 1.45 1.60 1.62 1.54 1.49 1.32 1.29 1.18 1.04
0.76 0.86 0.96 0.93 0.87 0.81 0.78 0.74 0.72 0.77 0.79 0.86 0.92 0.94 0.93 0.91 0.86 0.87 0.89 0.89 0.90 0.84 0.77 0.78 0.81 0.87 0.88 0.89 0.86 0.99 1.09 1.14 1.17 1.22 1.28 1.47 1.67 1.72 1.52 1.41 1.46 1.43 1.29
0.62 0.71 0.83 0.93 0.91 0.82 0.78 0.80 0.77 0.81 0.85 0.90 0.93 0.97 0.98 0.82 0.87 0.81 0.77 0.83 0.88 0.88 0.86 0.81 0.74 0.70 0.68 0.66 0.64 0.71 0.86 0.98 1.04 1.10 1.16 1.31 1.52 1.71 1.75 1.69 1.60 1.51 1.47
0.64 0.73 0.84 0.94 0.95 0.91 0.85 0.88 0.89 0.95 1.01 0.99 0.98 0.97 0.98 1.02 1.02 0.87 0.73 0.70 0.76 0.82 0.86 0.85 0.70 0.61 0.67 0.65 0.66 0.65 0.66 0.75 0.85 0.97 1.06 1.10 1.26 1.49 1.69 1.64 1.70 1.72 1.69
0.70 0.81 0.92 1.00 0.99 0.99 1.02 1.07 1.12 1.15 1.18 1.16 1.11 1.05 1.10 1.09 1.00 0.82 0.72 0.64 0.68 0.73 0.76 0.79 0.77 0.68 0.65 0.72 0.77 0.75 0.69 0.68 0.71 0.75 0.83 0.97 1.17 1.42 1.68 1.66 1.65 1.72 1.76
0.84 0.91 0.99 1.09 1.14 1.17 1.22 1.25 1.28 1.33 1.30 1.25 1.21 1.20 1.16 1.17 1.15 0.94 0.86 0.80 0.85 0.87 0.88 0.83 0.79 0.73 0.75 0.72 0.75 0.77 0.74 0.71 0.68 0.71 0.73 0.88 1.10 1.21 1.42 1.54 1.52 1.53 1.45
1.00 1.13 1.29 1.43 1.45 1.46 1.55 1.60 1.54 1.47 1.39 1.42 1.38 1.36 1.35 1.40 1.49 1.26 1.12 1.05 1.07 1.03 1.07 0.98 0.88 0.80 0.79 0.75 0.71 0.74 0.72 0.73 0.79 0.76 0.73 0.76 0.85 1.03 1.18 1.30 1.42 1.47 1.35
1.14 1.29 1.51 1.66 1.73 1.77 1.87 1.88 1.85 1.81 1.78 1.72 1.61 1.58 1.58 1.61 1.69 1.48 1.33 1.25 1.27 1.31 1.28 1.16 1.11 1.01 0.85 0.80 0.74 0.75 0.75 0.77 0.84 0.87 0.87 0.88 0.93 1.02 1.10 1.17 1.34 1.46 1.43
1.19 1.33 1.47 1.63 1.67 1.74 1.93 1.99 2.02 2.01 1.94 1.88 1.82 1.69 1.67 1.65 1.57 1.41 1.25 1.18 1.27 1.40 1.45 1.35 1.26 1.12 0.90 0.80 0.73 0.72 0.73 0.68 0.70 0.82 0.86 0.87 0.88 0.90 0.96 1.11 1.26 1.33 1.37
1.28 1.41 1.53 1.62 1.70 1.78 1.82 1.81 1.84 1.91 1.90 1.82 1.81 1.74 1.70 1.69 1.63 1.36 1.15 1.08 1.12 1.22 1.36 1.40 1.25 1.08 0.91 0.79 0.75 0.72 0.66 0.60 0.64 0.71 0.72 0.73 0.75 0.81 0.95 1.13 1.31 1.38 1.34
1.38 1.42 1.50 1.62 1.65 1.68 1.80 1.88 1.94 2.03 2.09 1.99 1.88 1.80 1.75 1.70 1.59 1.41 1.23 1.13 1.16 1.25 1.35 1.40 1.27 1.14 0.98 0.90 0.81 0.72 0.67 0.71 0.75 0.77 0.79 0.83 0.90 0.96 1.02 1.08 1.19 1.28 1.31
1.26 1.33 1.39 1.45 1.54 1.62 1.67 1.74 1.75 1.81 1.80 1.76 1.70 1.69 1.68 1.64 1.49 1.39 1.28 1.18 1.23 1.33 1.38 1.45 1.35 1.29 1.21 1.11 1.03 0.97 0.95 0.95 0.89 0.87 0.93 0.95 0.96 1.02 1.04 1.05 1.16 1.18 1.12
1.32 1.36 1.32 1.31 1.38 1.44 1.49 1.47 1.43 1.35 1.31 1.26 1.25 1.26 1.26 1.21 1.13 1.02 0.98 0.98 1.03 1.17 1.24 1.41 1.47 1.44 1.39 1.31 1.19 1.09 1.04 1.00 0.94 0.96 0.99 1.01 1.01 1.03 1.08 1.07 1.12 1.15 1.07
1.20 1.22 1.21 1.21 1.29 1.33 1.36 1.39 1.41 1.33 1.21 1.12 1.09 1.05 1.06 1.04 1.01 0.97 0.97 1.02 1.02 1.07 1.13 1.29 1.36 1.32 1.29 1.24 1.12 1.01 0.96 0.97 1.04 1.05 1.07 1.06 1.11 1.13 1.18 1.16 1.13 1.17 1.13
1.03 1.07 1.10 1.14 1.20 1.29 1.35 1.41 1.52 1.60 1.54 1.35 1.16 1.05 0.97 0.91 0.86 0.85 0.87 0.88 0.88 0.92 1.04 1.18 1.21 1.15 1.13 1.09 1.07 1.01 0.99 1.05 1.13 1.12 1.11 1.12 1.14 1.14 1.17 1.17 1.14 1.11 1.10
0.94 0.94 0.95 0.99 1.04 1.11 1.14 1.22 1.32 1.42 1.45 1.36 1.21 1.08 0.96 0.87 0.78 0.73 0.72 0.71 0.79 0.91 1.06 1.11 1.13 1.13 1.06 1.03 1.02 0.98 0.97 0.99 1.08 1.14 1.11 1.12 1.12 1.14 1.12 1.09 1.13 1.12 1.03
0.89 0.86 0.86 0.87 0.88 0.87 0.90 0.97 1.07 1.18 1.24 1.18 1.08 0.97 0.86 0.81 0.72 0.67 0.62 0.61 0.70 0.79 0.89 0.96 1.00 0.97 0.91 0.92 0.95 0.93 0.91 0.98 1.08 1.11 1.08 1.11 1.15 1.15 1.07 1.04 1.06 1.09 1.02
0.88 0.79 0.74 0.74 0.74 0.76 0.81 0.87 0.91 0.95 1.01 0.97 0.89 0.77 0.70 0.66 0.59 0.56 0.56 0.60 0.68 0.78 0.84 0.89 0.89 0.86 0.84 0.88 0.92 0.95 0.93 0.98 1.06 1.08 1.08 1.12 1.16 1.16 1.09 1.06 1.04 1.05 1.05
0.84 0.74 0.67 0.65 0.67 0.70 0.71 0.78 0.84 0.84 0.82 0.79 0.73 0.60 0.57 0.55 0.49 0.46 0.49 0.55 0.62 0.73 0.75 0.74 0.77 0.78 0.76 0.78 0.84 0.91 0.95 1.01 1.08 1.10 1.08 1.10 1.14 1.14 1.16 1.13 1.12 1.09 1.09
0.86 0.73 0.63 0.59 0.60 0.62 0.65 0.74 0.80 0.78 0.70 0.65 0.60 0.57 0.56 0.58 0.49 0.46 0.51 0.59 0.66 0.68 0.65 0.66 0.70 0.74 0.75 0.76 0.76 0.84 0.91 0.97 1.02 1.03 1.09 1.13 1.11 1.09 1.10 1.05 1.05 1.06 1.06
0.82 0.73 0.64 0.55 0.55 0.60 0.63 0.69 0.73 0.72 0.66 0.61 0.58 0.56 0.57 0.60 0.56 0.54 0.59 0.70 0.69 0.63 0.61 0.64 0.67 0.70 0.73 0.78 0.78 0.78 0.82 0.87 0.87 0.87 0.90 0.95 0.97 0.99 1.01 1.00 0.99 0.98 1.01
0.80 0.72 0.62 0.53 0.51 0.55 0.58 0.64 0.68 0.69 0.65 0.59 0.58 0.59 0.62 0.65 0.62 0.61 0.64 0.66 0.62 0.58 0.54 0.58 0.64 0.66 0.69 0.71 0.73 0.73 0.73 0.70 0.70 0.73 0.76 0.80 0.85 0.93 0.99 1.00 1.00 0.99 0.98
0.73 0.66 0.60 0.53 0.47 0.47 0.54 0.62 0.63 0.63 0.61 0.57 0.57 0.59 0.58 0.58 0.55 0.51 0.49 0.49 0.49 0.49 0.49 0.54 0.60 0.62 0.66 0.67 0.60 0.58 0.55 0.50 0.52 0.61 0.64 0.72 0.83 0.90 0.94 0.99 0.98 0.99 0.97

GEFSGL_prec_meanprecacc_174.txt.gz
Total_Precipitation_Accumulation
1.29 1.32 1.31 1.28 1.32 1.31 1.21 1.07 1.02 1.00 0.96 0.96 1.02 1.08 1.09 1.10 1.14 1.20 1.24 1.45 1.55 1.53 1.51 1.53 1.48 1.46 1.45 1.40 1.46 1.58 1.70 1.70 1.45 1.22 1.25 1.27 1.24 1.11 1.05 0.99 0.89 0.81 0.65
1.23 1.40 1.46 1.39 1.34 1.25 1.10 1.02 1.02 1.01 0.99 1.00 1.04 1.05 0.98 0.96 1.06 1.10 1.16 1.31 1.38 1.36 1.33 1.34 1.22 1.21 1.24 1.20 1.28 1.34 1.42 1.60 1.57 1.43 1.49 1.51 1.47 1.36 1.30 1.24 1.06 0.85 0.70
1.19 1.51 1.65 1.60 1.47 1.30 1.12 0.99 0.96 0.97 1.00 1.02 1.01 1.02 1.01 1.08 1.17 1.19 1.19 1.18 1.18 1.20 1.30 1.35 1.20 1.15 1.12 1.13 1.15 1.12 1.16 1.33 1.47 1.48 1.51 1.59 1.59 1.58 1.44 1.28 1.19 1.06 0.82
1.08 1.29 1.39 1.29 1.20 1.13 1.00 0.90 0.87 0.89 0.95 0.97 0.99 1.00 1.05 1.14 1.19 1.23 1.23 1.17 1.09 1.04 1.08 1.11 1.09 1.08 1.08 1.18 1.18 1.16 1.17 1.28 1.40 1.46 1.52 1.66 1.68 1.59 1.55 1.38 1.35 1.24 1.09
0.82 0.92 1.01 0.98 0.91 0.88 0.86 0.84 0.83 0.91 0.92 0.99 1.05 1.06 1.04 1.02 0.97 0.96 0.99 0.99 1.03 0.98 0.91 0.90 0.92 1.00 1.02 1.03 0.99 1.11 1.21 1.24 1.27 1.31 1.36 1.54 1.73 1.78 1.59 1.48 1.54 1.51 1.36
0.68 0.77 0.90 0.99 0.97 0.90 0.87 0.88 0.87 0.94 0.97 1.01 1.03 1.10 1.10 0.92 0.99 0.98 0.94 1.02 1.09 1.07 1.04 0.97 0.91 0.89 0.85 0.81 0.79 0.85 0.99 1.10 1.14 1.20 1.24 1.39 1.59 1.78 1.82 1.76 1.68 1.61 1.56
0.71 0.80 0.91 1.03 1.08 1.03 0.94 0.98 0.99 1.04 1.10 1.08 1.07 1.07 1.08 1.11 1.14 1.02 0.88 0.85 0.91 0.97 1.00 1.00 0.86 0.78 0.84 0.81 0.83 0.79 0.79 0.88 0.97 1.09 1.17 1.21 1.35 1.57 1.77 1.72 1.77 1.79 1.77
0.78 0.88 1.03 1.12 1.11 1.10 1.12 1.16 1.19 1.23 1.26 1.24 1.20 1.14 1.17 1.17 1.09 0.92 0.83 0.75 0.79 0.85 0.91 0.96 0.95 0.86 0.83 0.89 0.92 0.89 0.82 0.79 0.81 0.84 0.91 1.05 1.24 1.48 1.74 1.72 1.71 1.77 1.81
0.93 0.98 1.09 1.21 1.24 1.27 1.32 1.33 1.37 1.42 1.37 1.32 1.30 1.33 1.30 1.31 1.26 1.05 0.97 0.90 0.96 1.00 1.02 1.01 0.99 0.91 0.96 0.92 0.91 0.92 0.87 0.82 0.78 0.79 0.79 0.94 1.15 1.25 1.46 1.58 1.55 1.56 1.48
1.10 1.20 1.36 1.51 1.53 1.54 1.63 1.69 1.64 1.57 1.48 1.49 1.47 1.47 1.49 1.54 1.63 1.40 1.25 1.16 1.21 1.20 1.24 1.15 1.05 0.97 0.97 0.91 0.85 0.87 0.83 0.82 0.88 0.85 0.81 0.82 0.90 1.07 1.22 1.33 1.44 1.50 1.38
1.20 1.35 1.57 1.71 1.79 1.84 1.94 1.97 1.94 1.91 1.88 1.82 1.71 1.67 1.68 1.73 1.83 1.62 1.46 1.38 1.42 1.47 1.44 1.31 1.27 1.20 1.04 0.97 0.89 0.88 0.87 0.88 0.95 0.97 0.96 0.96 0.99 1.06 1.12 1.19 1.36 1.48 1.45
1.25 1.39 1.52 1.66 1.71 1.78 1.99 2.06 2.10 2.11 2.05 1.98 1.92 1.78 1.75 1.73 1.65 1.51 1.36 1.30 1.41 1.56 1.62 1.53 1.44 1.32 1.10 1.01 0.91 0.87 0.86 0.80 0.80 0.90 0.93 0.93 0.94 0.94 1.00 1.13 1.28 1.35 1.40
1.34 1.47 1.59 1.68 1.76 1.85 1.89 1.88 1.91 1.97 1.97 1.90 1.91 1.83 1.76 1.74 1.69 1.42 1.21 1.13 1.17 1.28 1.45 1.51 1.39 1.22 1.05 0.92 0.88 0.84 0.76 0.67 0.69 0.75 0.77 0.78 0.79 0.85 0.99 1.16 1.34 1.41 1.36
1.43 1.48 1.56 1.68 1.71 1.74 1.86 1.93 1.98 2.07 2.14 2.05 1.94 1.85 1.79 1.72 1.62 1.43 1.24 1.14 1.18 1.27 1.37 1.43 1.30 1.17 1.02 0.94 0.86 0.78 0.72 0.76 0.79 0.81 0.82 0.87 0.93 0.99 1.04 1.11 1.21 1.31 1.33
1.32 1.38 1.43 1.48 1.56 1.64 1.70 1.77 1.77 1.83 1.81 1.78 1.73 1.71 1.69 1.64 1.49 1.40 1.29 1.18 1.23 1.33 1.39 1.46 1.36 1.31 1.23 1.14 1.07 1.00 0.98 0.99 0.93 0.91 0.96 0.97 0.98 1.03 1.05 1.07 1.19 1.20 1.15
1.37 1.39 1.35 1.34 1.39 1.45 1.50 1.48 1.44 1.36 1.32 1.27 1.27 1.28 1.26 1.21 1.14 1.03 0.99 0.99 1.05 1.19 1.26 1.42 1.49 1.46 1.41 1.33 1.21 1.11 1.06 1.01 0.95 0.97 1.00 1.02 1.02 1.04 1.09 1.08 1.14 1.17 1.09
1.23 1.25 1.24 1.24 1.31 1.34 1.36 1.39 1.42 1.34 1.22 1.14 1.10 1.06 1.08 1.05 1.01 0.98 0.99 1.03 1.04 1.09 1.15 1.31 1.37 1.33 1.31 1.25 1.13 1.02 0.97 0.98 1.05 1.07 1.08 1.07 1.11 1.13 1.18 1.16 1.13 1.18 1.14
1.06 1.10 1.14 1.18 1.23 1.30 1.35 1.42 1.52 1.61 1.55 1.37 1.18 1.07 0.98 0.93 0.87 0.86 0.88 0.89 0.90 0.93 1.05 1.18 1.21 1.16 1.14 1.11 1.07 1.02 1.00 1.05 1.14 1.12 1.12 1.12 1.14 1.15 1.17 1.18 1.14 1.11 1.11
0.95 0.96 0.97 1.03 1.08 1.14 1.17 1.23 1.34 1.45 1.48 1.38 1.23 1.10 0.98 0.90 0.80 0.74 0.73 0.72 0.80 0.91 1.07 1.12 1.14 1.13 1.07 1.03 1.03 0.98 0.97 1.00 1.08 1.14 1.12 1.13 1.12 1.14 1.13 1.10 1.13 1.12 1.03
0.93 0.90 0.88 0.90 0.91 0.91 0.94 1.01 1.11 1.21 1.27 1.21 1.12 1.00 0.89 0.84 0.74 0.68 0.62 0.62 0.70 0.79 0.89 0.96 1.00 0.97 0.91 0.93 0.95 0.93 0.91 0.98 1.08 1.11 1.08 1.11 1.15 1.15 1.07 1.04 1.06 1.09 1.02
0.91 0.85 0.80 0.79 0.78 0.79 0.84 0.89 0.93 0.96 1.02 0.98 0.90 0.77 0.70 0.66 0.60 0.56 0.56 0.60 0.68 0.78 0.84 0.89 0.89 0.86 0.85 0.88 0.93 0.95 0.93 0.98 1.06 1.08 1.08 1.12 1.16 1.16 1.09 1.06 1.04 1.05 1.06
0.85 0.75 0.68 0.65 0.68 0.71 0.73 0.80 0.85 0.85 0.83 0.79 0.74 0.60 0.57 0.55 0.49 0.46 0.49 0.55 0.62 0.73 0.75 0.74 0.77 0.78 0.76 0.78 0.84 0.91 0.95 1.01 1.08 1.10 1.08 1.10 1.14 1.14 1.16 1.13 1.12 1.09 1.09
0.86 0.73 0.64 0.59 0.60 0.62 0.65 0.74 0.81 0.78 0.70 0.65 0.60 0.57 0.56 0.58 0.49 0.46 0.51 0.59 0.66 0.68 0.65 0.66 0.70 0.74 0.75 0.76 0.76 0.84 0.91 0.97 1.02 1.03 1.09 1.13 1.11 1.09 1.10 1.05 1.05 1.06 1.06
0.82 0.73 0.64 0.55 0.55 0.60 0.63 0.69 0.73 0.73 0.66 0.61 0.58 0.56 0.57 0.60 0.56 0.54 0.59 0.70 0.69 0.63 0.61 0.64 0.67 0.70 0.73 0.78 0.78 0.78 0.82 0.87 0.87 0.87 0.90 0.95 0.97 0.99 1.01 1.00 1.00 0.99 1.01
0.80 0.72 0.62 0.53 0.51 0.55 0.58 0.64 0.68 0.69 0.65 0.59 0.58 0.59 0.62 0.65 0.62 0.61 0.64 0.66 0.62 0.58 0.54 0.58 0.64 0.66 0.69 0.71 0.73 0.73 0.73 0.70 0.70 0.73 0.76 0.80 0.85 0.93 0.99 1.00 1.00 0.99 0.98
0.73 0.66 0.60 0.53 0.47 0.47 0.54 0.62 0.63 0.63 0.61 0.57 0.57 0.59 0.58 0.58 0.55 0.51 0.49 0.49 0.49 0.49 0.49 0.54 0.60 0.62 0.66 0.67 0.60 0.58 0.55 0.50 0.52 0.61 0.64 0.72 0.83 0.90 0.94 0.99 0.98 0.99 0.98

GEFSGL_prec_meanprecacc_180.txt.gz
Total_Precipitation_Accumulation
1.44 1.51 1.49 1.45 1.47 1.43 1.30 1.14 1.08 1.06 1.02 1.03 1.12 1.19 1.17 1.20 1.25 1.31 1.35 1.56 1.65 1.63 1.60 1.60 1.53 1.51 1.49 1.44 1.52 1.64 1.76 1.75 1.49 1.23 1.26 1.29 1.26 1.14 1.09 1.02 0.92 0.83 0.67
1.35 1.51 1.56 1.50 1.47 1.39 1.20 1.08 1.06 1.05 1.04 1.05 1.13 1.17 1.08 1.06 1.17 1.24 1.29 1.42 1.50 1.48 1.43 1.42 1.28 1.27 1.30 1.25 1.33 1.39 1.48 1.66 1.62 1.46 1.51 1.54 1.51 1.40 1.34 1.27 1.09 0.88 0.73
1.29 1.60 1.72 1.67 1.55 1.39 1.21 1.05 1.00 1.03 1.07 1.08 1.09 1.12 1.13 1.19 1.28 1.30 1.29 1.27 1.27 1.29 1.39 1.46 1.29 1.25 1.20 1.21 1.22 1.19 1.23 1.39 1.51 1.51 1.54 1.63 1.63 1.62 1.48 1.32 1.23 1.10 0.86
1.14 1.36 1.45 1.35 1.25 1.18 1.09 0.98 0.93 0.96 1.03 1.07 1.10 1.10 1.15 1.25 1.28 1.33 1.33 1.25 1.17 1.14 1.20 1.26 1.27 1.25 1.23 1.30 1.27 1.24 1.24 1.35 1.47 1.52 1.57 1.70 1.72 1.63 1.59 1.42 1.40 1.28 1.14
0.86 0.98 1.08 1.06 0.99 0.95 0.95 0.93 0.90 0.99 1.01 1.07 1.15 1.15 1.11 1.09 1.04 1.04 1.06 1.07 1.10 1.06 1.01 1.01 1.04 1.13 1.15 1.15 1.09 1.20 1.30 1.34 1.35 1.39 1.43 1.61 1.80 1.84 1.65 1.54 1.61 1.59 1.44
0.74 0.84 0.97 1.06 1.04 0.97 0.93 0.95 0.93 1.01 1.06 1.10 1.12 1.18 1.17 0.97 1.05 1.05 1.03 1.13 1.20 1.17 1.11 1.04 0.99 0.98 0.94 0.91 0.91 0.96 1.11 1.22 1.25 1.29 1.32 1.46 1.67 1.85 1.90 1.84 1.76 1.68 1.64
0.79 0.87 0.99 1.09 1.13 1.09 1.01 1.04 1.05 1.12 1.19 1.17 1.15 1.15 1.16 1.18 1.21 1.10 0.98 0.93 1.00 1.05 1.08 1.07 0.94 0.86 0.93 0.89 0.92 0.89 0.88 0.97 1.06 1.16 1.23 1.26 1.40 1.63 1.84 1.79 1.84 1.86 1.83
0.86 0.95 1.09 1.19 1.19 1.17 1.19 1.24 1.29 1.35 1.38 1.36 1.30 1.23 1.26 1.26 1.18 1.01 0.94 0.86 0.89 0.94 0.99 1.04 1.04 0.95 0.94 1.00 1.02 0.98 0.90 0.87 0.90 0.92 0.98 1.11 1.32 1.55 1.81 1.78 1.76 1.82 1.86
0.98 1.03 1.15 1.27 1.32 1.35 1.40 1.45 1.50 1.55 1.49 1.44 1.42 1.42 1.37 1.37 1.34 1.13 1.06 0.98 1.03 1.06 1.09 1.08 1.06 0.99 1.06 1.03 1.01 1.02 0.96 0.91 0.88 0.90 0.90 1.04 1.23 1.33 1.52 1.63 1.59 1.60 1.51
1.16 1.28 1.44 1.60 1.64 1.67 1.77 1.85 1.78 1.70 1.58 1.58 1.55 1.53 1.55 1.62 1.74 1.50 1.36 1.28 1.31 1.29 1.33 1.23 1.14 1.06 1.08 1.02 0.95 0.98 0.97 0.97 1.02 1.00 0.96 0.96 1.01 1.16 1.30 1.39 1.50 1.55 1.43
1.24 1.41 1.62 1.77 1.85 1.91 2.03 2.07 2.02 2.00 1.96 1.88 1.76 1.71 1.72 1.77 1.89 1.70 1.55 1.47 1.52 1.57 1.53 1.40 1.36 1.31 1.16 1.14 1.09 1.07 1.08 1.08 1.13 1.14 1.13 1.12 1.14 1.21 1.26 1.32 1.46 1.57 1.52
1.27 1.41 1.54 1.68 1.72 1.79 2.01 2.11 2.17 2.18 2.12 2.03 1.97 1.82 1.78 1.77 1.70 1.57 1.42 1.37 1.49 1.64 1.71 1.61 1.52 1.42 1.21 1.15 1.08 1.08 1.09 1.02 1.01 1.12 1.13 1.13 1.11 1.09 1.12 1.23 1.36 1.42 1.45
1.36 1.49 1.61 1.69 1.77 1.86 1.91 1.91 1.97 2.04 2.03 1.95 1.95 1.87 1.81 1.78 1.73 1.48 1.25 1.17 1.21 1.32 1.50 1.57 1.47 1.33 1.16 1.04 1.02 0.98 0.90 0.80 0.83 0.89 0.90 0.89 0.88 0.93 1.05 1.21 1.38 1.44 1.39
1.46 1.51 1.58 1.69 1.72 1.75 1.87 1.95 2.01 2.10 2.19 2.10 1.99 1.90 1.84 1.77 1.65 1.47 1.27 1.17 1.20 1.29 1.40 1.47 1.35 1.23 1.07 0.99 0.93 0.84 0.77 0.81 0.84 0.85 0.86 0.90 0.96 1.02 1.07 1.14 1.24 1.33 1.36
1.34 1.40 1.45 1.49 1.57 1.65 1.70 1.79 1.80 1.86 1.84 1.81 1.77 1.75 1.73 1.68 1.52 1.43 1.31 1.20 1.24 1.35 1.41 1.47 1.38 1.33 1.26 1.18 1.10 1.03 1.00 1.01 0.95 0.93 0.98 0.99 0.99 1.05 1.06 1.08 1.20 1.21 1.16
1.39 1.41 1.37 1.35 1.40 1.46 1.50 1.49 1.46 1.38 1.35 1.31 1.31 1.32 1.30 1.25 1.17 1.06 1.01 1.01 1.06 1.20 1.27 1.43 1.50 1.47 1.43 1.36 1.24 1.13 1.08 1.03 0.98 0.99 1.02 1.03 1.03 1.04 1.10 1.08 1.14 1.17 1.09
1.25 1.27 1.26 1.27 1.33 1.34 1.36 1.39 1.43 1.35 1.24 1.16 1.14 1.11 1.14 1.10 1.05 1.02 1.02 1.06 1.06 1.11 1.16 1.32 1.38 1.34 1.32 1.26 1.15 1.03 0.98 0.99 1.06 1.07 1.09 1.08 1.12 1.14 1.19 1.16 1.14 1.18 1.14
1.08 1.13 1.17 1.21 1.26 1.33 1.37 1.43 1.54 1.62 1.56 1.38 1.19 1.09 1.01 0.96 0.90 0.89 0.91 0.92 0.91 0.94 1.06 1.20 1.22 1.17 1.14 1.11 1.08 1.02 1.00 1.06 1.14 1.13 1.12 1.13 1.14 1.15 1.17 1.18 1.14 1.11 1.11
0.99 1.00 1.00 1.06 1.12 1.18 1.20 1.26 1.36 1.46 1.49 1.39 1.25 1.12 1.00 0.92 0.83 0.77 0.75 0.74 0.81 0.92 1.07 1.12 1.14 1.14 1.07 1.04 1.03 0.99 0.98 1.00 1.09 1.14 1.12 1.13 1.13 1.14 1.13 1.10 1.13 1.12 1.03
0.96 0.93 0.91 0.93 0.94 0.94 0.97 1.04 1.14 1.24 1.30 1.23 1.13 1.02 0.91 0.86 0.76 0.69 0.63 0.62 0.71 0.80 0.89 0.96 1.00 0.98 0.92 0.93 0.95 0.94 0.92 0.98 1.08 1.11 1.08 1.11 1.15 1.15 1.07 1.04 1.06 1.10 1.02
0.93 0.87 0.84 0.84 0.83 0.83 0.87 0.93 0.97 1.00 1.05 1.00 0.92 0.80 0.72 0.67 0.61 0.57 0.56 0.60 0.69 0.78 0.85 0.89 0.90 0.86 0.85 0.88 0.93 0.95 0.93 0.98 1.06 1.08 1.08 1.12 1.16 1.16 1.09 1.06 1.04 1.06 1.06
0.85 0.76 0.69 0.68 0.71 0.74 0.76 0.83 0.88 0.89 0.86 0.82 0.76 0.61 0.58 0.55 0.49 0.47 0.50 0.55 0.62 0.73 0.75 0.74 0.77 0.78 0.76 0.78 0.84 0.91 0.95 1.01 1.08 1.10 1.08 1.10 1.14 1.14 1.16 1.13 1.12 1.09 1.09
0.87 0.74 0.64 0.60 0.61 0.62 0.66 0.75 0.81 0.79 0.72 0.66 0.61 0.57 0.57 0.59 0.49 0.46 0.51 0.60 0.66 0.68 0.65 0.66 0.70 0.74 0.75 0.76 0.76 0.84 0.91 0.97 1.02 1.03 1.09 1.13 1.11 1.09 1.10 1.05 1.05 1.06 1.06
0.83 0.73 0.64 0.55 0.55 0.61 0.63 0.69 0.73 0.73 0.67 0.62 0.59 0.57 0.57 0.61 0.56 0.55 0.59 0.70 0.69 0.63 0.61 0.64 0.67 0.70 0.73 0.78 0.78 0.78 0.82 0.87 0.87 0.87 0.90 0.95 0.97 0.99 1.01 1.00 1.00 0.99 1.01
0.81 0.73 0.63 0.53 0.51 0.55 0.59 0.64 0.68 0.69 0.65 0.60 0.59 0.60 0.63 0.66 0.63 0.62 0.64 0.66 0.62 0.58 0.54 0.58 0.64 0.66 0.69 0.71 0.73 0.73 0.73 0.70 0.70 0.73 0.76 0.80 0.85 0.93 0.99 1.00 1.00 0.99 0.98
0.74 0.68 0.61 0.53 0.47 0.48 0.54 0.62 0.63 0.63 0.61 0.57 0.57 0.59 0.59 0.59 0.56 0.51 0.49 0.49 0.49 0.49 0.49 0.54 0.60 0.62 0.66 0.67 0.60 0.58 0.55 0.50 0.52 0.61 0.64 0.72 0.83 0.90 0.95 0.99 0.98 0.99 0.98

GEFSGL_prec_meanprecacc_186.txt.gz
Total_Precipitation_Accumulation
1.49 1.58 1.56 1.52 1.54 1.52 1.40 1.24 1.17 1.12 1.10 1.12 1.20 1.27 1.24 1.26 1.34 1.41 1.43 1.65 1.75 1.73 1.69 1.69 1.63 1.63 1.60 1.55 1.62 1.73 1.84 1.85 1.58 1.31 1.34 1.36 1.33 1.21 1.15 1.07 0.97 0.89 0.73
1.39 1.57 1.63 1.57 1.56 1.49 1.31 1.18 1.14 1.12 1.13 1.15 1.22 1.23 1.14 1.12 1.25 1.32 1.37 1.51 1.60 1.58 1.53 1.53 1.39 1.39 1.42 1.37 1.45 1.52 1.61 1.80 1.76 1.60 1.64 1.65 1.61 1.48 1.41 1.35 1.16 0.95 0.80
1.32 1.65 1.79 1.75 1.64 1.51 1.34 1.16 1.09 1.10 1.15 1.15 1.16 1.18 1.19 1.26 1.37 1.39 1.38 1.36 1.37 1.41 1.53 1.61 1.44 1.41 1.36 1.37 1.38 1.36 1.41 1.56 1.68 1.66 1.67 1.75 1.72 1.69 1.55 1.38 1.28 1.15 0.91
1.17 1.41 1.52 1.42 1.34 1.28 1.19 1.08 1.02 1.03 1.10 1.13 1.16 1.16 1.21 1.33 1.36 1.41 1.42 1.34 1.27 1.27 1.34 1.39 1.41 1.41 1.38 1.46 1.43 1.40 1.39 1.48 1.58 1.62 1.66 1.79 1.80 1.70 1.67 1.50 1.47 1.35 1.20
0.91 1.03 1.14 1.13 1.08 1.04 1.04 1.03 0.98 1.07 1.12 1.18 1.22 1.21 1.18 1.20 1.14 1.13 1.16 1.16 1.19 1.14 1.08 1.08 1.13 1.23 1.25 1.26 1.19 1.30 1.41 1.45 1.47 1.49 1.53 1.70 1.89 1.93 1.75 1.63 1.68 1.64 1.49
0.80 0.90 1.03 1.14 1.12 1.04 1.01 1.03 1.00 1.08 1.13 1.17 1.17 1.23 1.22 1.03 1.10 1.09 1.09 1.21 1.27 1.24 1.17 1.10 1.05 1.05 0.99 0.96 0.95 1.02 1.20 1.32 1.36 1.41 1.44 1.58 1.78 1.96 1.98 1.91 1.82 1.74 1.69
0.86 0.92 1.03 1.14 1.19 1.15 1.07 1.13 1.13 1.19 1.26 1.24 1.20 1.20 1.22 1.25 1.27 1.15 1.01 0.98 1.06 1.11 1.13 1.11 0.97 0.89 0.97 0.94 0.97 0.94 0.95 1.05 1.15 1.27 1.36 1.39 1.53 1.74 1.94 1.88 1.93 1.94 1.91
0.94 1.01 1.13 1.23 1.24 1.24 1.26 1.32 1.42 1.48 1.48 1.45 1.39 1.31 1.34 1.37 1.30 1.10 1.01 0.94 0.99 1.04 1.09 1.13 1.12 1.04 1.03 1.11 1.15 1.10 1.02 0.99 1.03 1.05 1.10 1.21 1.41 1.65 1.91 1.88 1.87 1.92 1.95
1.03 1.08 1.19 1.31 1.38 1.45 1.50 1.51 1.56 1.63 1.59 1.54 1.54 1.57 1.53 1.58 1.55 1.30 1.20 1.11 1.14 1.17 1.21 1.21 1.18 1.10 1.16 1.13 1.12 1.12 1.06 1.01 0.98 1.00 1.00 1.13 1.34 1.44 1.64 1.75 1.74 1.75 1.66
1.19 1.31 1.48 1.64 1.68 1.73 1.87 1.95 1.86 1.77 1.66 1.70 1.71 1.73 1.73 1.79 1.91 1.65 1.47 1.38 1.41 1.38 1.42 1.34 1.25 1.18 1.20 1.15 1.05 1.08 1.07 1.07 1.13 1.12 1.08 1.09 1.15 1.33 1.49 1.58 1.70 1.79 1.65
1.29 1.44 1.65 1.80 1.88 1.95 2.09 2.17 2.15 2.13 2.10 2.03 1.94 1.92 1.90 1.92 2.03 1.79 1.61 1.52 1.57 1.64 1.62 1.48 1.44 1.39 1.23 1.20 1.15 1.15 1.19 1.20 1.25 1.25 1.23 1.23 1.26 1.33 1.40 1.48 1.66 1.80 1.78
1.30 1.42 1.55 1.69 1.72 1.80 2.02 2.14 2.21 2.24 2.21 2.12 2.04 1.91 1.90 1.87 1.79 1.66 1.52 1.46 1.57 1.72 1.79 1.67 1.57 1.47 1.26 1.20 1.13 1.16 1.18 1.09 1.07 1.18 1.21 1.22 1.21 1.21 1.25 1.38 1.53 1.61 1.66
1.38 1.50 1.61 1.70 1.78 1.87 1.92 1.92 2.00 2.09 2.09 2.01 2.00 1.93 1.88 1.88 1.83 1.57 1.33 1.24 1.27 1.36 1.53 1.60 1.49 1.36 1.19 1.07 1.05 1.03 0.95 0.85 0.89 0.95 0.96 0.95 0.94 0.98 1.11 1.27 1.45 1.52 1.48
1.48 1.52 1.59 1.70 1.74 1.76 1.88 1.96 2.02 2.12 2.22 2.13 2.02 1.94 1.89 1.83 1.71 1.52 1.31 1.21 1.24 1.32 1.42 1.49 1.37 1.25 1.10 1.02 0.97 0.89 0.83 0.87 0.90 0.91 0.92 0.94 0.99 1.05 1.10 1.16 1.26 1.36 1.39
1.36 1.42 1.47 1.51 1.59 1.66 1.71 1.79 1.81 1.87 1.86 1.83 1.78 1.78 1.77 1.71 1.55 1.46 1.34 1.22 1.26 1.37 1.42 1.49 1.39 1.34 1.27 1.19 1.11 1.05 1.03 1.04 0.98 0.96 1.01 1.01 1.01 1.06 1.07 1.09 1.21 1.23 1.18
1.42 1.44 1.40 1.38 1.43 1.48 1.51 1.49 1.47 1.39 1.36 1.32 1.32 1.33 1.32 1.27 1.18 1.07 1.03 1.03 1.07 1.21 1.28 1.44 1.50 1.47 1.43 1.36 1.25 1.15 1.10 1.05 1.00 1.01 1.04 1.05 1.04 1.05 1.11 1.10 1.15 1.18 1.10
1.29 1.33 1.32 1.31 1.37 1.37 1.39 1.42 1.44 1.36 1.25 1.17 1.15 1.13 1.15 1.12 1.06 1.03 1.04 1.08 1.08 1.12 1.17 1.32 1.39 1.35 1.32 1.27 1.15 1.04 0.99 1.00 1.07 1.09 1.10 1.09 1.13 1.15 1.19 1.17 1.14 1.18 1.15
1.11 1.18 1.25 1.32 1.36 1.40 1.42 1.47 1.57 1.64 1.57 1.39 1.21 1.11 1.03 0.98 0.93 0.93 0.96 0.97 0.96 0.98 1.08 1.20 1.23 1.17 1.14 1.11 1.08 1.02 1.01 1.06 1.15 1.14 1.13 1.13 1.15 1.15 1.18 1.19 1.15 1.12 1.11
1.02 1.03 1.05 1.12 1.19 1.25 1.26 1.31 1.39 1.49 1.52 1.42 1.27 1.14 1.01 0.94 0.86 0.83 0.83 0.81 0.87 0.97 1.10 1.13 1.15 1.14 1.07 1.04 1.04 0.99 0.98 1.00 1.09 1.14 1.12 1.13 1.13 1.14 1.13 1.10 1.13 1.12 1.04
1.00 0.98 0.97 0.97 0.99 0.99 1.01 1.07 1.17 1.28 1.33 1.26 1.16 1.04 0.93 0.88 0.78 0.73 0.69 0.69 0.77 0.85 0.94 0.99 1.01 0.98 0.92 0.93 0.96 0.94 0.92 0.98 1.08 1.11 1.08 1.11 1.15 1.15 1.07 1.04 1.06 1.10 1.03
0.98 0.93 0.90 0.89 0.87 0.87 0.90 0.95 0.99 1.02 1.07 1.03 0.96 0.83 0.74 0.69 0.62 0.58 0.58 0.64 0.72 0.81 0.88 0.92 0.91 0.87 0.85 0.89 0.93 0.96 0.93 0.99 1.06 1.08 1.08 1.12 1.16 1.16 1.10 1.06 1.04 1.06 1.06
0.91 0.81 0.75 0.72 0.75 0.78 0.80 0.87 0.92 0.92 0.89 0.84 0.78 0.62 0.58 0.55 0.49 0.47 0.50 0.56 0.63 0.74 0.76 0.76 0.78 0.79 0.76 0.78 0.84 0.91 0.95 1.01 1.08 1.10 1.08 1.10 1.14 1.14 1.16 1.13 1.12 1.09 1.10
0.93 0.81 0.72 0.66 0.66 0.67 0.70 0.79 0.84 0.81 0.73 0.67 0.62 0.58 0.57 0.59 0.49 0.46 0.51 0.60 0.66 0.68 0.65 0.66 0.71 0.74 0.75 0.76 0.77 0.84 0.91 0.97 1.02 1.03 1.09 1.13 1.11 1.09 1.10 1.05 1.05 1.06 1.06
0.87 0.79 0.70 0.59 0.59 0.64 0.66 0.71 0.74 0.74 0.68 0.63 0.60 0.58 0.58 0.61 0.57 0.55 0.59 0.70 0.69 0.63 0.61 0.64 0.67 0.70 0.73 0.78 0.78 0.78 0.82 0.87 0.87 0.87 0.90 0.95 0.97 0.99 1.01 1.00 1.00 0.99 1.01
0.83 0.74 0.64 0.54 0.52 0.56 0.59 0.64 0.68 0.69 0.65 0.60 0.59 0.60 0.63 0.67 0.64 0.63 0.65 0.66 0.62 0.58 0.54 0.59 0.64 0.66 0.69 0.71 0.73 0.73 0.73 0.70 0.70 0.73 0.76 0.80 0.85 0.93 1.00 1.00 1.00 0.99 0.98
0.75 0.68 0.62 0.54 0.47 0.48 0.55 0.62 0.64 0.63 0.61 0.58 0.57 0.59 0.59 0.60 0.59 0.55 0.52 0.51 0.50 0.49 0.49 0.54 0.60 0.62 0.66 0.67 0.60 0.58 0.55 0.50 0.52 0.61 0.64 0.72 0.83 0.91 0.95 1.00 0.98 1.00 0.98

GEFSGL_prec_meanprecacc_192.txt.gz
Total_Precipitation_Accumulation
1.53 1.63 1.63 1.60 1.63 1.64 1.52 1.34 1.27 1.25 1.24 1.29 1.38 1.45 1.42 1.43 1.52 1.59 1.58 1.80 1.90 1.88 1.84 1.83 1.77 1.78 1.75 1.69 1.77 1.90 2.04 2.05 1.75 1.42 1.44 1.45 1.42 1.31 1.27 1.17 1.05 0.98 0.82
1.43 1.62 1.70 1.66 1.67 1.62 1.45 1.29 1.24 1.26 1.30 1.33 1.41 1.43 1.32 1.30 1.43 1.48 1.52 1.66 1.74 1.73 1.68 1.69 1.55 1.56 1.60 1.54 1.64 1.71 1.81 2.00 1.95 1.74 1.76 1.78 1.74 1.61 1.55 1.48 1.31 1.08 0.87
1.37 1.71 1.88 1.85 1.77 1.67 1.49 1.29 1.21 1.23 1.30 1.31 1.32 1.34 1.37 1.47 1.54 1.53 1.50 1.47 1.48 1.53 1.67 1.75 1.59 1.57 1.52 1.52 1.53 1.51 1.58 1.72 1.84 1.81 1.81 1.88 1.84 1.78 1.66 1.49 1.37 1.22 0.96
1.24 1.48 1.59 1.50 1.45 1.41 1.33 1.22 1.15 1.16 1.23 1.26 1.28 1.29 1.35 1.47 1.50 1.53 1.56 1.49 1.41 1.40 1.47 1.53 1.52 1.52 1.49 1.56 1.52 1.50 1.51 1.60 1.70 1.73 1.76 1.89 1.89 1.80 1.79 1.61 1.58 1.44 1.27
0.99 1.09 1.20 1.20 1.17 1.14 1.15 1.15 1.13 1.22 1.25 1.32 1.36 1.36 1.31 1.34 1.28 1.28 1.29 1.27 1.31 1.26 1.19 1.20 1.23 1.32 1.32 1.31 1.24 1.36 1.48 1.52 1.55 1.58 1.62 1.79 1.98 2.03 1.86 1.76 1.82 1.78 1.62
0.87 0.97 1.11 1.21 1.20 1.14 1.12 1.14 1.12 1.19 1.25 1.32 1.31 1.37 1.35 1.13 1.20 1.19 1.20 1.32 1.38 1.34 1.27 1.19 1.15 1.13 1.06 1.02 1.00 1.07 1.26 1.38 1.42 1.49 1.52 1.66 1.87 2.07 2.12 2.07 1.97 1.89 1.84
0.95 1.01 1.13 1.22 1.26 1.24 1.17 1.22 1.23 1.29 1.36 1.37 1.33 1.32 1.33 1.36 1.37 1.24 1.10 1.09 1.17 1.20 1.21 1.20 1.05 0.96 1.04 1.00 1.03 1.02 1.03 1.13 1.22 1.34 1.43 1.47 1.61 1.83 2.06 2.01 2.07 2.09 2.06
1.06 1.11 1.24 1.33 1.31 1.32 1.33 1.39 1.49 1.56 1.58 1.57 1.52 1.42 1.45 1.47 1.38 1.18 1.10 1.05 1.10 1.14 1.17 1.21 1.21 1.12 1.10 1.17 1.20 1.16 1.07 1.05 1.08 1.10 1.15 1.27 1.47 1.71 1.99 1.98 1.99 2.05 2.10
1.15 1.19 1.32 1.41 1.45 1.51 1.57 1.58 1.63 1.70 1.66 1.62 1.61 1.65 1.61 1.66 1.64 1.40 1.32 1.23 1.26 1.27 1.28 1.27 1.25 1.17 1.23 1.19 1.17 1.17 1.12 1.07 1.06 1.09 1.07 1.20 1.40 1.51 1.71 1.83 1.83 1.87 1.81
1.29 1.40 1.55 1.71 1.74 1.79 1.94 2.01 1.93 1.86 1.74 1.78 1.78 1.79 1.80 1.87 2.02 1.76 1.55 1.44 1.46 1.43 1.47 1.40 1.33 1.25 1.26 1.20 1.10 1.12 1.11 1.11 1.20 1.18 1.14 1.14 1.20 1.37 1.53 1.63 1.78 1.90 1.80
1.33 1.48 1.70 1.85 1.93 2.00 2.13 2.21 2.20 2.18 2.15 2.09 2.02 2.01 1.99 2.02 2.12 1.86 1.66 1.56 1.61 1.67 1.65 1.52 1.49 1.44 1.27 1.24 1.19 1.18 1.23 1.24 1.29 1.30 1.27 1.26 1.29 1.37 1.44 1.52 1.71 1.87 1.86
1.33 1.45 1.58 1.72 1.76 1.84 2.06 2.16 2.24 2.27 2.24 2.16 2.10 1.98 1.99 1.97 1.90 1.74 1.58 1.50 1.60 1.76 1.82 1.71 1.61 1.51 1.29 1.23 1.16 1.19 1.21 1.11 1.10 1.21 1.24 1.24 1.24 1.23 1.28 1.42 1.57 1.64 1.69
1.40 1.53 1.65 1.74 1.81 1.90 1.95 1.94 2.03 2.11 2.11 2.04 2.02 1.96 1.93 1.93 1.90 1.66 1.42 1.32 1.33 1.41 1.58 1.66 1.53 1.39 1.22 1.09 1.07 1.05 0.96 0.86 0.90 0.97 0.99 0.98 0.97 1.01 1.14 1.30 1.47 1.53 1.49
1.49 1.54 1.61 1.73 1.76 1.79 1.90 1.98 2.04 2.15 2.24 2.15 2.04 1.96 1.91 1.86 1.75 1.56 1.37 1.27 1.30 1.36 1.46 1.52 1.39 1.27 1.12 1.04 0.98 0.90 0.84 0.88 0.92 0.93 0.94 0.97 1.01 1.07 1.11 1.17 1.27 1.37 1.40
1.37 1.43 1.49 1.53 1.61 1.68 1.73 1.81 1.82 1.90 1.89 1.86 1.81 1.80 1.78 1.73 1.56 1.47 1.35 1.24 1.28 1.39 1.44 1.50 1.40 1.35 1.28 1.20 1.12 1.06 1.04 1.04 0.99 0.96 1.01 1.02 1.02 1.07 1.08 1.09 1.21 1.23 1.18
1.44 1.46 1.41 1.39 1.45 1.50 1.53 1.52 1.49 1.42 1.39 1.35 1.35 1.35 1.33 1.27 1.19 1.07 1.03 1.03 1.07 1.21 1.28 1.45 1.51 1.48 1.44 1.37 1.25 1.15 1.10 1.06 1.00 1.01 1.04 1.05 1.04 1.06 1.11 1.10 1.15 1.18 1.10
1.32 1.37 1.35 1.34 1.40 1.41 1.43 1.45 1.47 1.40 1.28 1.20 1.17 1.15 1.16 1.13 1.07 1.04 1.04 1.08 1.08 1.12 1.17 1.33 1.39 1.35 1.32 1.27 1.16 1.04 0.99 1.01 1.08 1.09 1.11 1.10 1.14 1.15 1.20 1.17 1.14 1.18 1.15
1.14 1.20 1.28 1.36 1.41 1.47 1.50 1.54 1.62 1.68 1.61 1.43 1.25 1.15 1.07 1.01 0.94 0.94 0.97 0.97 0.97 0.99 1.09 1.21 1.23 1.17 1.15 1.12 1.09 1.03 1.01 1.07 1.16 1.14 1.13 1.14 1.15 1.16 1.18 1.19 1.15 1.12 1.11
1.04 1.05 1.07 1.14 1.22 1.30 1.32 1.37 1.47 1.56 1.60 1.50 1.34 1.19 1.05 0.97 0.88 0.84 0.83 0.82 0.88 0.98 1.11 1.14 1.15 1.15 1.08 1.05 1.04 1.00 0.98 1.01 1.09 1.14 1.12 1.13 1.13 1.14 1.13 1.10 1.14 1.12 1.04
1.01 1.00 0.99 0.99 1.01 1.02 1.04 1.11 1.20 1.31 1.36 1.30 1.20 1.08 0.96 0.90 0.80 0.74 0.70 0.70 0.78 0.86 0.95 1.00 1.03 0.99 0.93 0.94 0.96 0.94 0.92 0.98 1.08 1.11 1.09 1.11 1.16 1.15 1.07 1.05 1.07 1.10 1.03
0.99 0.96 0.93 0.93 0.91 0.91 0.93 0.97 1.02 1.05 1.11 1.06 0.98 0.85 0.76 0.70 0.62 0.58 0.59 0.65 0.74 0.83 0.90 0.95 0.94 0.89 0.87 0.90 0.94 0.96 0.93 0.99 1.06 1.08 1.08 1.12 1.16 1.16 1.10 1.06 1.04 1.06 1.06
0.93 0.84 0.78 0.76 0.79 0.82 0.83 0.89 0.94 0.94 0.91 0.86 0.79 0.63 0.59 0.56 0.50 0.48 0.51 0.57 0.64 0.76 0.78 0.78 0.81 0.82 0.80 0.81 0.86 0.93 0.97 1.01 1.09 1.10 1.08 1.10 1.14 1.14 1.16 1.13 1.13 1.09 1.10
0.95 0.83 0.74 0.70 0.69 0.70 0.72 0.81 0.86 0.83 0.74 0.69 0.63 0.59 0.59 0.61 0.51 0.48 0.53 0.61 0.67 0.68 0.66 0.67 0.72 0.76 0.77 0.78 0.79 0.86 0.93 0.98 1.03 1.04 1.09 1.13 1.11 1.09 1.10 1.05 1.05 1.06 1.06
0.92 0.84 0.74 0.64 0.65 0.69 0.71 0.76 0.78 0.78 0.72 0.67 0.63 0.61 0.61 0.64 0.59 0.56 0.60 0.71 0.69 0.63 0.61 0.64 0.68 0.70 0.74 0.79 0.79 0.80 0.83 0.88 0.87 0.88 0.90 0.95 0.97 0.99 1.01 1.00 1.00 0.99 1.01
0.88 0.81 0.70 0.59 0.58 0.62 0.66 0.71 0.75 0.75 0.71 0.64 0.62 0.63 0.66 0.69 0.65 0.64 0.65 0.66 0.62 0.58 0.54 0.59 0.64 0.66 0.69 0.71 0.73 0.74 0.73 0.70 0.70 0.74 0.76 0.80 0.85 0.93 1.00 1.00 1.00 0.99 0.98
0.77 0.71 0.64 0.56 0.50 0.51 0.57 0.65 0.66 0.66 0.63 0.59 0.58 0.60 0.60 0.61 0.59 0.55 0.52 0.51 0.50 0.49 0.50 0.54 0.61 0.62 0.66 0.67 0.60 0.58 0.55 0.50 0.53 0.61 0.64 0.72 0.83 0.91 0.95 1.00 0.98 1.00 0.98